Hourly Weather Koudougou

Today, 12 August, Wednesday

Time Temperature Precipitation Wind Pressure Humidity
00:00 +22°C° 0 mm 3 mps 733 mmHg 94%
01:00 +23°C° 0 mm 4 mps 733 mmHg 93%
02:00 +23°C° 0 mm 4 mps 733 mmHg 93%
03:00 +23°C° 0 mm 4 mps 732 mmHg 92%
04:00 +24°C° 0 mm 3 mps 733 mmHg 93%
05:00 +24°C° 0 mm 3 mps 733 mmHg 93%
06:00 +22°C° 0 mm 3 mps 733 mmHg 93%
07:00 +24°C° 0 mm 3 mps 733 mmHg 90%
08:00 +25°C° 0 mm 4 mps 734 mmHg 87%
09:00 +26°C° 0 mm 4 mps 734 mmHg 83%
10:00 +27°C° 0 mm 4 mps 734 mmHg 78%
11:00 +28°C° 0 mm 4 mps 734 mmHg 72%
12:00 +30°C° 0 mm 4 mps 734 mmHg 67%
13:00 +30°C° 0.2 mm 4 mps 733 mmHg 65%
14:00 +32°C° 0.2 mm 4 mps 733 mmHg 63%
15:00 +33°C° 0.2 mm 4 mps 732 mmHg 61%
16:00 +32°C° 0.4 mm 4 mps 732 mmHg 66%
17:00 +30°C° 0.4 mm 3 mps 732 mmHg 71%
18:00 +29°C° 0.4 mm 3 mps 732 mmHg 75%
19:00 +28°C° 0.5 mm 3 mps 733 mmHg 78%
20:00 +27°C° 0.5 mm 2 mps 733 mmHg 82%
21:00 +27°C° 0.5 mm 2 mps 734 mmHg 85%
22:00 +26°C° 0.2 mm 2 mps 734 mmHg 86%
23:00 +26°C° 0.2 mm 2 mps 734 mmHg 87%

Tomorrow, 13 August, Thursday

Time Temperature Precipitation Wind Pressure Humidity
00:00 +26°C° 0.2 mm 2 mps 734 mmHg 89%
01:00 +25°C° 0.1 mm 2 mps 734 mmHg 90%
02:00 +25°C° 0.1 mm 2 mps 733 mmHg 90%
03:00 +25°C° 0.1 mm 2 mps 733 mmHg 91%
04:00 +25°C° 0 mm 2 mps 733 mmHg 92%
05:00 +24°C° 0 mm 2 mps 734 mmHg 92%
06:00 +24°C° 0 mm 2 mps 734 mmHg 92%
07:00 +26°C° 0 mm 2 mps 734 mmHg 86%
08:00 +27°C° 0 mm 3 mps 734 mmHg 80%
09:00 +28°C° 0 mm 4 mps 735 mmHg 73%
10:00 +29°C° 0 mm 3 mps 735 mmHg 69%
11:00 +30°C° 0 mm 3 mps 734 mmHg 64%
12:00 +31°C° 0 mm 3 mps 734 mmHg 59%
13:00 +33°C° 0 mm 3 mps 733 mmHg 58%
14:00 +33°C° 0 mm 3 mps 733 mmHg 57%
15:00 +32°C° 0 mm 2 mps 732 mmHg 56%
16:00 +32°C° 0 mm 2 mps 732 mmHg 59%
17:00 +31°C° 0 mm 2 mps 732 mmHg 62%
18:00 +31°C° 0 mm 2 mps 732 mmHg 64%
19:00 +30°C° 0 mm 2 mps 732 mmHg 67%
20:00 +29°C° 0 mm 2 mps 733 mmHg 69%
21:00 +29°C° 0 mm 2 mps 733 mmHg 71%
22:00 +28°C° 0 mm 2 mps 733 mmHg 73%
23:00 +28°C° 0 mm 2 mps 733 mmHg 74%

Day after tomorrow, 14 August, Friday

Time Temperature Precipitation Wind Pressure Humidity
00:00 +28°C° 0 mm 3 mps 733 mmHg 76%
01:00 +27°C° 0 mm 3 mps 732 mmHg 78%
02:00 +27°C° 0 mm 3 mps 732 mmHg 79%
03:00 +27°C° 0 mm 3 mps 731 mmHg 81%
04:00 +26°C° 0 mm 3 mps 731 mmHg 82%
05:00 +26°C° 0 mm 3 mps 731 mmHg 82%
06:00 +26°C° 0 mm 3 mps 731 mmHg 83%
07:00 +27°C° 0 mm 3 mps 732 mmHg 79%
08:00 +29°C° 0 mm 4 mps 732 mmHg 74%
09:00 +30°C° 0 mm 5 mps 732 mmHg 70%
10:00 +32°C° 0 mm 5 mps 732 mmHg 64%
11:00 +34°C° 0 mm 4 mps 731 mmHg 59%
12:00 +35°C° 0 mm 4 mps 731 mmHg 54%
13:00 +36°C° 0 mm 4 mps 730 mmHg 51%
14:00 +37°C° 0 mm 4 mps 730 mmHg 49%
15:00 +37°C° 0 mm 4 mps 729 mmHg 47%
16:00 +36°C° 0 mm 3 mps 729 mmHg 52%
17:00 +35°C° 0 mm 3 mps 729 mmHg 57%
18:00 +34°C° 0 mm 3 mps 728 mmHg 62%
19:00 +32°C° 1.6 mm 4 mps 729 mmHg 69%
20:00 +30°C° 1.6 mm 5 mps 729 mmHg 76%
21:00 +28°C° 1.6 mm 6 mps 730 mmHg 83%
22:00 +28°C° 4 mm 6 mps 730 mmHg 83%
23:00 +27°C° 4 mm 6 mps 730 mmHg 83%

15 August, Saturday

Time Temperature Precipitation Wind Pressure Humidity
00:00 +26°C° 4 mm 7 mps 730 mmHg 84%
01:00 +26°C° 0.2 mm 5 mps 729 mmHg 85%
02:00 +26°C° 0.2 mm 4 mps 729 mmHg 86%
03:00 +25°C° 0.2 mm 2 mps 729 mmHg 87%
04:00 +25°C° 0.1 mm 3 mps 729 mmHg 89%
05:00 +25°C° 0.1 mm 4 mps 729 mmHg 91%
06:00 +25°C° 0.1 mm 5 mps 729 mmHg 93%
07:00 +26°C° 0 mm 5 mps 730 mmHg 89%
08:00 +27°C° 0 mm 5 mps 730 mmHg 86%
09:00 +27°C° 0 mm 5 mps 731 mmHg 83%
10:00 +29°C° 0 mm 5 mps 731 mmHg 76%
11:00 +30°C° 0 mm 5 mps 731 mmHg 70%
12:00 +33°C° 0 mm 5 mps 731 mmHg 63%
13:00 +32°C° 0.5 mm 5 mps 731 mmHg 67%
14:00 +30°C° 0.5 mm 5 mps 730 mmHg 70%
15:00 +30°C° 0.5 mm 5 mps 729 mmHg 73%
16:00 +29°C° 0.1 mm 4 mps 729 mmHg 77%
17:00 +28°C° 0.1 mm 4 mps 729 mmHg 81%
18:00 +27°C° 0.1 mm 4 mps 729 mmHg 85%
19:00 +26°C° 0 mm 4 mps 730 mmHg 86%
20:00 +26°C° 0 mm 4 mps 730 mmHg 87%
21:00 +25°C° 0 mm 4 mps 731 mmHg 88%
22:00 +25°C° 0 mm 4 mps 731 mmHg 88%
23:00 +25°C° 0 mm 4 mps 731 mmHg 89%

16 August, Sunday

Time Temperature Precipitation Wind Pressure Humidity
00:00 +23°C° 0 mm 4 mps 731 mmHg 89%
01:00 +23°C° 0 mm 4 mps 731 mmHg 90%
02:00 +23°C° 0 mm 4 mps 730 mmHg 91%
03:00 +23°C° 0 mm 4 mps 730 mmHg 91%
04:00 +23°C° 0 mm 4 mps 730 mmHg 92%
05:00 +22°C° 0 mm 4 mps 731 mmHg 92%
06:00 +22°C° 0 mm 4 mps 731 mmHg 93%
07:00 +23°C° 0 mm 4 mps 732 mmHg 89%
08:00 +25°C° 0 mm 5 mps 732 mmHg 85%
09:00 +26°C° 0 mm 5 mps 733 mmHg 81%
10:00 +27°C° 0 mm 5 mps 732 mmHg 77%
11:00 +28°C° 0 mm 5 mps 732 mmHg 73%
12:00 +29°C° 0 mm 5 mps 732 mmHg 69%
13:00 +30°C° 0 mm 5 mps 731 mmHg 67%
14:00 +30°C° 0 mm 5 mps 730 mmHg 64%
15:00 +32°C° 0 mm 5 mps 730 mmHg 62%
16:00 +30°C° 0 mm 4 mps 730 mmHg 65%
17:00 +30°C° 0 mm 4 mps 730 mmHg 68%
18:00 +29°C° 0 mm 3 mps 730 mmHg 71%
19:00 +29°C° 0 mm 3 mps 730 mmHg 73%
20:00 +28°C° 0 mm 3 mps 731 mmHg 75%
21:00 +27°C° 0 mm 3 mps 731 mmHg 77%
22:00 +27°C° 0 mm 2 mps 732 mmHg 79%
23:00 +26°C° 0 mm 2 mps 732 mmHg 81%

17 August, Monday

Time Temperature Precipitation Wind Pressure Humidity
00:00 +26°C° 0 mm 2 mps 732 mmHg 82%
01:00 +26°C° 0 mm 2 mps 732 mmHg 83%
02:00 +25°C° 0 mm 2 mps 731 mmHg 85%
03:00 +25°C° 0 mm 2 mps 731 mmHg 86%
04:00 +25°C° 0 mm 3 mps 732 mmHg 87%
05:00 +24°C° 0 mm 3 mps 732 mmHg 88%
06:00 +24°C° 0 mm 3 mps 732 mmHg 88%
07:00 +26°C° 0 mm 4 mps 732 mmHg 84%
08:00 +27°C° 0 mm 5 mps 732 mmHg 80%
09:00 +28°C° 0 mm 5 mps 733 mmHg 75%
10:00 +30°C° 0 mm 5 mps 732 mmHg 70%
11:00 +32°C° 0 mm 5 mps 732 mmHg 65%
12:00 +33°C° 0 mm 4 mps 731 mmHg 60%
13:00 +34°C° 0 mm 4 mps 731 mmHg 57%
14:00 +35°C° 0 mm 4 mps 730 mmHg 54%
15:00 +35°C° 0 mm 4 mps 730 mmHg 52%
16:00 +34°C° 0 mm 3 mps 730 mmHg 56%
17:00 +34°C° 0 mm 3 mps 730 mmHg 59%
18:00 +32°C° 0 mm 2 mps 730 mmHg 63%
19:00 +31°C° 0 mm 3 mps 730 mmHg 66%
20:00 +30°C° 0 mm 3 mps 731 mmHg 69%
21:00 +29°C° 0 mm 3 mps 731 mmHg 72%
22:00 +28°C° 0.5 mm 3 mps 731 mmHg 76%
23:00 +28°C° 0.5 mm 4 mps 731 mmHg 80%
Show more